DW0249 Weather Reports


time (UTC)temp
C
wind
direction
speed
KPH
gust
KPH
rain 1hr
cm
rain 24hr
cm
rain mn
cm
humidity
%
barometer
mb
20260503223515 28 0.0 3.2 0.00 0.05 0.05 100 1010.6
20260503222516 29 68 1.6 8.0 0.00 0.05 0.05 100 1010.6
20260503221515 30 0.0 4.8 0.00 0.05 0.05 100 1010.9
20260503220515 29 0.0 3.2 0.00 0.05 0.05 100 1011.0
20260503215515 28 68 1.6 4.8 0.00 0.05 0.05 100 1011.2
20260503214515 28 0.0 3.2 0.00 0.05 0.05 100 1011.2
20260503213515 28 0.0 1.6 0.00 0.05 0.05 100 1011.4
20260503212517 28 0.0 1.6 0.00 0.05 0.05 100 1011.4
20260503211517 28 0.0 4.8 0.00 0.05 0.05 100 1011.5
20260503210517 28 0.0 1.6 0.00 0.05 0.05 100 1011.7
20260503205537 28 0.0 1.6 0.00 0.05 0.05 100 1011.7
20260503204517 27 0.0 1.6 0.00 0.05 0.05 100 1011.9
20260503203517 27 0.0 1.6 0.00 0.05 0.05 100 1012.0
20260503202517 27 0.0 1.6 0.00 0.05 0.05 100 1012.1
20260503201517 26 0.0 3.2 0.00 0.05 0.05 100 1012.2
20260503200537 26 0.0 4.8 0.00 0.05 0.05 100 1012.4
20260503195517 26 23 1.6 6.4 0.00 0.05 0.05 100 1012.4
20260503194517 26 0.0 3.2 0.00 0.05 0.05 100 1012.6
20260503193516 26 0.0 3.2 0.00 0.05 0.05 100 1012.8
20260503192517 26 68 1.6 6.4 0.00 0.05 0.05 100 1012.9
20260503191537 25 0.0 1.6 0.00 0.05 0.05 100 1013.0
20260503190517 25 0.0 1.6 0.00 0.05 0.05 100 1013.0
20260503185517 25 0.0 4.8 0.00 0.05 0.05 100 1013.2
20260503184517 23 0.0 3.2 0.00 0.05 0.05 100 1013.3
20260503183517 23 0.0 1.6 0.00 0.05 0.05 100 1013.3
20260503182517 22 0.0 1.6 0.00 0.05 0.05 100 1013.4
20260503181517 22 0.0 1.6 0.00 0.05 0.05 100 1013.6
20260503180516 21 0.0 1.6 0.00 0.05 0.05 100 1013.5
20260503175516 20 0.0 1.6 0.00 0.05 0.05 100 1013.7
20260503174536 20 0.0 6.4 0.00 0.05 0.05 100 1013.7
20260503173516 20 0.0 4.8 0.00 0.05 0.05 100 1013.9
20260503172516 20 0.0 1.6 0.00 0.05 0.05 100 1013.8
20260503171517 20 0.0 1.6 0.00 0.05 0.05 100 1013.9
20260503170516 19 225 1.6 6.4 0.00 0.05 0.05 100 1013.9
20260503150516 12 0.0 0.0 0.00 0.20 0.05 100 1014.3
20260503130516 10 0.0 0.0 0.00 0.20 0.05 100 1013.7
20260503110515 11 0.0 0.0 0.00 0.25 0.05 100 1014.2
20260503081517 13 0.0 0.0 0.00 0.20 0.00 100 1014.1
20260503080517 13 0.0 0.0 0.00 0.20 0.00 100 1014.1
20260503072537 14 0.0 0.0 0.00 0.20 0.00 100 1014.2
20260503071517 14 0.0 0.0 0.00 0.20 0.00 100 1014.3
20260503070517 14 0.0 0.0 0.00 0.20 0.00 100 1014.1
20260503054516 15 0.0 0.0 0.00 0.23 0.20 100 1013.9
20260503053517 16 0.0 0.0 0.00 0.23 0.20 100 1013.9
20260503052516 16 0.0 0.0 0.00 0.28 0.20 100 1013.9
20260503051516 16 0.0 0.0 0.00 0.28 0.20 100 1013.9
20260503050517 16 0.0 0.0 0.00 0.28 0.20 100 1013.8
20260503045517 16 0.0 0.0 0.00 0.28 0.20 100 1013.8
20260503044517 16 0.0 0.0 0.00 0.28 0.20 100 1013.7
20260503043516 16 0.0 0.0 0.00 0.28 0.20 100 1013.6
20260503042517 17 0.0 0.0 0.00 0.28 0.20 100 1013.5
20260503041516 17 0.0 0.0 0.00 0.28 0.20 100 1013.5
20260503040517 17 0.0 0.0 0.00 0.28 0.20 100 1013.2
20260503035516 18 0.0 0.0 0.00 0.28 0.20 100 1013.1
20260503034517 18 0.0 0.0 0.00 0.28 0.20 100 1012.9
20260503033537 18 0.0 0.0 0.00 0.28 0.20 100 1012.8
20260503032516 18 0.0 0.0 0.00 0.28 0.20 100 1012.9
20260503031516 19 0.0 0.0 0.00 0.28 0.20 100 1012.7
20260503030516 20 0.0 0.0 0.00 0.28 0.20 100 1012.8
20260503025516 20 0.0 0.0 0.00 0.28 0.20 100 1012.6
20260503024517 20 0.0 0.0 0.00 0.28 0.20 100 1012.4
20260503023516 20 0.0 0.0 0.00 0.28 0.20 100 1012.3
20260503022536 21 0.0 0.0 0.00 0.28 0.20 100 1012.3
20260503021516 21 0.0 0.0 0.00 0.28 0.20 100 1012.3
20260503020556 21 0.0 0.0 0.00 0.28 0.20 100 1012.3
20260503015557 22 0.0 0.0 0.00 0.28 0.20 100 1012.3
20260503014516 22 0.0 1.6 0.00 0.28 0.20 100 1012.4
20260503013517 22 0.0 0.0 0.00 0.28 0.20 100 1012.4
20260503012516 23 0.0 0.0 0.00 0.28 0.20 100 1012.3
20260503011516 23 0.0 1.6 0.00 0.28 0.20 100 1012.5
20260503010516 25 0.0 0.0 0.00 0.28 0.20 100 1012.5
20260503005536 26 0.0 0.0 0.00 0.30 0.20 100 1012.5
20260503004516 26 0.0 0.0 0.00 0.30 0.20 100 1012.5
20260503003516 25 0.0 0.0 0.00 0.30 0.20 100 1012.5
20260503002537 25 0.0 1.6 0.00 0.30 0.20 100 1012.5
20260503001516 26 0.0 3.2 0.00 0.30 0.20 100 1012.6
20260503000516 25 0.0 6.4 0.00 0.30 0.20 100 1012.8
20260502235516 25 68 1.6 4.8 0.00 0.30 0.20 100 1013.0
20260502234536 25 68 1.6 4.8 0.00 0.30 0.20 100 1013.1
20260502233516 25 90 1.6 4.8 0.00 0.30 0.20 100 1013.3
20260502232516 25 0.0 1.6 0.00 0.30 0.20 100 1013.4
20260502231516 26 90 1.6 4.8 0.00 0.30 0.20 100 1013.4
20260502230515 26 0.0 1.6 0.00 0.30 0.20 100 1013.6
20260502225516 26 0.0 1.6 0.00 0.30 0.20 100 1013.8
20260502224516 25 0.0 1.6 0.00 0.30 0.20 100 1013.9